Regional Weather Roundup
Issued by NWS

Home | Current Version | Previous Version | Graphics & Text | Print | Product List | Glossary On
Versions: 1 2 3 4 5 6 7 8 9 10 11 12 13 14 15 16 17 18 19 20 21 22 23 24 25 26 27 28 29 30 31 32 33 34 35 36 37 38 39 40 41 42 43 44 45 46 47 48 49 50
000
ASUS43 KMPX 052310
RWRMN
WEATHER ROUNDUP FOR MINNESOTA
NATIONAL WEATHER SERVICE TWIN CITIES/CHANHASSEN MN
500 PM CST MON DEC 05 2016


NOTE: "FAIR" INDICATES FEW OR NO CLOUDS BELOW 12,000 FEET WITH NO
SIGNIFICANT WEATHER AND/OR OBSTRUCTIONS TO VISIBILITY. N/A MEANS
CURRENT SKY AND/OR WEATHER CONDITIONS ARE NOT AVAILABLE.

MNZ060>063-068>070-060000-
   Twin Cities Metro

CITY           SKY/WX    TMP DP  RH WIND       PRES   REMARKS
TWIN CITIES    CLOUDY    38  31  76 S21G28    29.66F
ST PAUL        CLOUDY    38  33  82 SE15      29.68S
CRYSTAL        MOCLDY    39  30  70 S14G25    29.64S
BLAINE         CLOUDY    39  36  87 SE18G25   29.64R
LAKEVILLE      CLOUDY    36  32  87 S14       29.66F
EDEN PRAIRIE   CLOUDY    39  32  76 SE14G25   29.63F
SOUTH ST PAUL  MOCLDY    38  32  79 S13       29.68F
LAKE ELMO      CLOUDY    37  32  81 SE12      29.69S
$$
MNZ001>005-007-008-013>017-022>024-027-028-060000-
   Northwest Minnesota

CITY           SKY/WX    TMP DP  RH WIND       PRES   REMARKS
BEMIDJI        CLOUDY    31  28  90 E14G21    29.60F WCI  20
HALLOCK        CLOUDY    30  28  93 E12       29.66S WCI  21
ROSEAU         CLOUDY    30  27  86 E14       29.67R WCI  20
WARROAD        CLOUDY    30  27  86 E17G23    29.69S WCI  18
THIEF RVR FALL CLOUDY    29  27  92 E17       29.61F WCI  17
CROOKSTON      CLOUDY    32  28  86 E9        29.59F WCI  24
FOSSTON        CLOUDY    28  27  93 E12G18    29.57F WCI  18
DETROIT LAKES  CLOUDY    32  30  93 SE14      29.53S WCI  22
MOORHEAD       LGT RAIN  34  30  86 E6        29.53F WCI  29
PARK RAPIDS    LGT SNOW  32  28  85 E13G20    29.55F FOG     WCI  22
$$
MNZ006-009>011-018-025>026-060000-
   North Central Minnesota

CITY           SKY/WX    TMP DP  RH WIND       PRES   REMARKS
BAUDETTE       CLOUDY    30  25  81 E13       29.68F WCI  20
FLAG ISLAND    CLOUDY    30  25  80 E8        29.71R WCI  23
INTL FALLS     CLOUDY    30  24  78 E12       29.71F WCI  20
WASKISH        CLOUDY    30  27  86 E10G17    29.67S WCI  21
BIG FORK       CLOUDY    30  27  86 NE8       29.68S WCI  23
LONGVILLE      SNOW      32  30  93 E6        29.61F VSB 1/2 WCI  26
GRAND RAPIDS   LGT SNOW  32  31  96 VRB6      29.67F VSB 3/4 WCI  26
CRANE LAKE     CLOUDY    28  27  93 CALM      29.77S
ORR            CLOUDY    28  25  86 CALM      29.70S
COOK           CLOUDY    28  27  93 E6        29.72S WCI  22
$$
MNZ012-019>021-037-060000-
   Northeast Minnesota

CITY           SKY/WX    TMP DP  RH WIND       PRES   REMARKS
DULUTH         SNOW      33  32  96 E18       29.71F VSB 1/2 WCI  22
ELY            CLOUDY    28  27  93 E9        29.74F WCI  20
HIBBING        LGT SNOW  31  28  89 E13       29.69S FOG     WCI  21
EVELETH        PTCLDY    32  30  90 E5        29.73R WCI  28
DULUTH HARBOR  LGT RAIN  37  34  87 E8        29.76F
TWO HARBORS    CLOUDY    36  30  80 NE6       29.75F
SILVER BAY     CLOUDY    32  30  93 NE5       29.78R WCI  27
GRAND MARAIS     N/A     34  29  82 N3        29.84R
G MARAIS ARPRT CLOUDY    27  21  80 CALM      29.79R
$$
MNZ029>031-032-039>041-046>048-054>057-064-060000-
   West Central Minnesota

CITY           SKY/WX    TMP DP  RH WIND       PRES   REMARKS
FERGUS FALLS   CLOUDY    36  30  80 SE12      29.54F
WHEATON        MOCLDY    34  34 100 SE12      29.49F WCI  25
MORRIS         CLOUDY    36  34  93 SE14      29.48S
ALEXANDRIA     CLOUDY    35  33  92 SE16G23   29.52F WCI  25
ELBOW LAKE     CLOUDY    34  32  92 SE12      29.49F WCI  26
WADENA         LGT SNOW  30  30 100 E10       29.53F WCI  21
GLENWOOD       PTCLDY    34  32  93 E10       29.51F WCI  26
APPLETON       CLOUDY    37  34  87 SE9       29.48F
BENSON         CLOUDY    37  34  87 S14       29.50F
ORTONVILLE     PTCLDY    36  30  80 CALM      29.47F
MADISON        CLEAR     37  36  93 S8        29.48F
WILLMAR        MOCLDY    37  36  93 SE13      29.54F
$$
MNZ033>034-036-042>043-049>051-058-059-060000-
   Central Minnesota

CITY           SKY/WX    TMP DP  RH WIND       PRES   REMARKS
ST CLOUD       CLOUDY    36  33  89 SE8       29.59F
PAYNESVILLE    CLOUDY    38  36  92 SE12      29.55F
AITKIN         CLOUDY    34  30  86 E8        29.62F WCI  27
PINE RIVER     SNOW      30  30 100 E12       29.63F VSB 1/2 WCI  21
BRAINERD       CLOUDY    33  32  96 E6G16     29.59F WCI  28
STAPLES        LGT SNOW  30  30 100 E8        29.56F WCI  23
LONG PRAIRIE   CLOUDY    32  32 100 E12       29.54F FOG     WCI  23
LITTLE FALLS   CLOUDY    34  32  93 E12       29.58F WCI  25
LITCHFIELD     CLOUDY    41  36  81 SE12G18   29.56F
BUFFALO        CLOUDY    39  32  75 SE12G20   29.62R
MAPLE LAKE     CLOUDY    39  34  82 SE8       29.61S
HUTCHINSON     CLOUDY    41  37  87 SE10G16   29.59R
$$
MNZ037-044-045-052-053-060000-
   East Central Minnesota

CITY           SKY/WX    TMP DP  RH WIND       PRES   REMARKS
PRINCETON      CLOUDY    36  34  93 E7        29.62F
MORA           CLOUDY    34  32  93 E7        29.67S WCI  28
CAMBRIDGE      CLOUDY    37  30  75 SE9       29.63F
RUSH CITY      CLOUDY    36  32  87 SE9       29.67S
MOOSE LAKE     CLOUDY    34  32  93 SE3       29.67S
HINCKLEY       CLOUDY    34  32  93 E8        29.68R WCI  27
CLOQUET        LGT SNOW  34  30  86 E14       29.68F VSB 3/4 WCI  24
MCGREGOR       CLOUDY    32  32 100 E9        29.65F WCI  24
$$
MNZ071>073-080-081-089-090-097-098-060000-
   Southwest Minnesota

CITY           SKY/WX    TMP DP  RH WIND       PRES   REMARKS
MONTEVIDEO     MOCLDY    39  36  87 SW9       29.52S
GRANITE FALLS  PTCLDY    40  36  83 S10       29.54S
CANBY          CLOUDY    41  34  77 CALM      29.50S
REDWOOD FALLS  CLOUDY    42  34  73 S9        29.56R
OLIVIA         PTCLDY    39  34  81 S9        29.54R
PIPESTONE      CLOUDY    41  36  81 SW16      29.52S
WINDOM         CLOUDY    43  34  70 S17G23    29.57R
WORTHINGTON    PTCLDY    41  34  76 S21G33    29.57R
JACKSON        CLOUDY    41  32  70 S18G26    29.60R
TRACY          CLOUDY    42  36  78 SW21G31   29.52R
SLAYTON        CLOUDY    39  35  84 S22       29.53R
$$
MNZ065>067-074>077-082>085-091>093-060000-
   South Central Minnesota

CITY           SKY/WX    TMP DP  RH WIND       PRES   REMARKS
MANKATO        CLOUDY    39  34  82 SE16      29.61
NEW ULM        CLOUDY    41  36  81 S17       29.58S
ST JAMES       CLOUDY    43  37  81 S12       29.61R
FAIRMONT       CLOUDY    42  36  79 S23G33    29.59F
GLENCOE        CLOUDY    41  37  84 SE14G21   29.59R
FARIBAULT      CLOUDY    37  32  81 SE9G16    29.67S
OWATONNA       CLOUDY    37  30  75 SE21      29.65F
WASECA         CLOUDY    36  32  87 SE16G25   29.64F
ALBERT LEA     CLOUDY    39  37  93 S15G28    29.67R
$$
MNZ078>079-086>088-094>096-060000-
   Southeast Minnesota

CITY           SKY/WX    TMP DP  RH WIND       PRES   REMARKS
ROCHESTER      CLOUDY    34  31  88 S22G29    29.71F WCI  22
RED WING       CLOUDY    37  30  75 SE13G24   29.71F
STANTON        CLOUDY    38  32  79 S13G22    29.67R
DODGE CENTER   CLOUDY    34  30  86 SE23      29.68F WCI  22
WINONA         CLOUDY    36  32  87 SE7       29.80F
AUSTIN         MOCLDY    34  30  86 S10G24    29.69F WCI  26
PRESTON        CLOUDY    32  30  90 SE15G21   29.75F WCI  22
$$
ABBREVIATIONS USED IN REMARKS
   TC - TEMPERATURES IN CELSIUS
  WCI - WIND CHILL INDEX
   HX - HEAT INDEX
  VSB - VISIBILITY
$$



USA.gov is the U.S. government's official web portal to all federal, state and local government web resources and services.